sat.trackr.live / text

‹ back to catalog

STARLINK-5766

NORAD 56025 · 2023-042AR

PAYLOAD ACTIVE UNKNOWN

§ Identity

Operator
Country
US
Launch date
2023-03-24
Launch site
AFETR
Launch vehicle
Mass (kg)
RCS (m²)

Purposes: comms

External: N2YO · Heavens-Above · Gunter

§ Orbital elements

Epoch: 2026-09-20T14:57:54.980064Z

Period
94.27 min
Inclination
43.0022°
Eccentricity
0.0001383
Mean motion
15.27575953 rev/d
Perigee alt
482.1 km
Apogee alt
484.0 km
Semi-major
6,861.2 km
B*
-2.0734e-5
RAAN
24.7172°
Arg perigee
277.2707°
Mean anomaly
82.7987°
Rev number
19,284

§ Raw data

STARLINK-57661 56025U 23042AR  26263.62355301 -.00000833  00000+0 -20734-4 0  99982 56025  43.0022  24.7172 0001383 277.2707  82.7987 15.27575953192845

JSON: /api/v1/satellites/56025 · /tle

For live sub-satellite position, see the globe view (requires WebGL).

§ Visibility from observer

Set your observer location to see the next 7 days of passes ≥ 10°. The values pass through the URL so the page stays shareable.

No JS? Fill the form by hand. The geolocation button needs JavaScript.